Location: Bletchingley
(51.2333°N, 0.1000°W)
Time: 01:47:47
(UTC+00:00)

Cosmos 1707 - Pass Details

Date: 18 September 2020
Orbit: 515 x 530 km, 82.5° (Epoch: 30 October)

Event Time Altitude Azimuth Distance (km) Brightness Sun altitude
Rises 19:14:34 0° 350° (N) 2,657 6.7 -11.2°
Reaches altitude 10° 19:16:44 10° 351° (N) 1,762 5.7 -11.6°
Maximum altitude 19:20:36 82° 79° (ENE) 530 2.6 -12.1°
Drops below altitude 10° 19:24:25 10° 168° (SSE) 1,742 5.1 -12.7°
Enters shadow 19:25:53 - 169° (SSE) 2,346 5.7 -12.9°
